Location: Newark
(52.3500°N, 175.9667°E)
Time: 21:18:23
(UTC+00:00)

Altair - Pass Details

Date: 01 May 2021
Orbit: 1501 x 1683 km, 47.2° (Epoch: 05 May)

Event Time Altitude Azimuth Distance (km) Brightness Sun altitude
Rises 22:28:03 0° 285° (WNW) 4,807 9.8 47.6°
Reaches altitude 10° 22:32:52 10° 265° (W) 3,779 9.4 48.0°
Maximum altitude 22:37:47 15° 233° (SW) 3,319 9.5 48.5°
Drops below altitude 10° 22:42:38 10° 201° (SSW) 3,700 10.0 48.9°
Sets 22:47:18 0° 181° (S) 4,651 10.5 49.3°
